LEMUR-2-JPGSQUARED (44855 NORAD) Tracking and Keplerian Element Data

This shows tracking and keplerian element data for the satellite.

Feedback or suggestion? Click here.




ElementValue
Catalog44855
NameLEMUR-2-JPGSQUARED
Epoch Orbit1608
Epoch Day87.71572764
Epoch Year2020
RAAN221.6301
Inclination36.9673
Eccentricity0.0004285
Argument of Perigee105.2587
Mean Anonmoly254.8632
Mean Motion14.98792026
Decay Rate6.85E-06
L11 44855U 19089D 20087.71572764 .00000685 00000-0 62220-4 0 9994
L22 44855 36.9673 221.6301 0004285 105.2587 254.8632 14.98792026 16087

Live tracking and technical data element details for LEMUR-2-JPGSQUARED (NORAD 44855). LEMUR-2-JPGSQUARED can be tracked NOW for your location showing map with azimuth and elevation plus other details from your city location.

Track the satellite on the map from your city or location and see movement details for azimuth, elevation, latitude, longitude, range, height, and movement on the map or in text.







IsCatalogInMostPopularTable: catalog: 44855, numindb: 32
Update: records affected: 1



GetName: 44855 LEMUR-2-JPGSQUARED

Hit Count: updated at: Sat, 28 Mar 2020 20:35:59 GMT